Sanford, FL

2:30 PM EST on November 23, 2017 (GMT -0500)
Orlando Sanford

Weather History for KSFB - September, 2013

Change the Weather History Date:

Friday, September 20, 2013

  Actual Average Record
Temperature  
Mean Temperature 78 °F 81 °F  
Max Temperature 88 °F 89 °F 94 °F (1991)
Min Temperature 70 °F 72 °F 65 °F (1978)
Degree Days  
Heating Degree Days 0 0  
Month to date heating degree days 0  
Since 1 July heating degree days 0  
Cooling Degree Days 14 16  
Month to date cooling degree days 330  
Year to date cooling degree days 2746  
Growing Degree Days 28 (Base 50)    
Moisture  
Dew Point 69 °F    
Average Humidity 76    
Maximum Humidity 93    
Minimum Humidity 53    
Precipitation  
Precipitation 0.00 in 0.19 in 2.67 in (1966)
Month to date precipitation 4.29  
Year to date precipitation 40.89  
Snow  
Snow 0.00 in - - ()
Month to date snowfall  
Since 1 July snowfall  
Snow Depth -    
Sea Level Pressure  
Sea Level Pressure 30.00 in    
Wind  
Wind Speed 4 mph (ENE)    
Max Wind Speed 15 mph    
Max Gust Speed -    
Visibility 10 miles    
Events      
T = Trace of Precipitation, MM = Missing Value Source: NWS Daily Summary

Daily Weather History Graph

Daily Weather History Graph

Search for Another Location

Airport or City:

Trip Planner

Search our weather history database for the weather conditions in past years. The results will help you decide how hot, cold, wet, or windy it might be!

Date:

Astronomy

Sep. 20, 2013 Rise Set
Actual Time 7:12 AM EDT 7:23 PM EDT
Civil Twilight 6:48 AM EDT 7:47 PM EDT
Nautical Twilight 6:21 AM EDT 8:14 PM EDT
Astronomical Twilight 5:53 AM EDT 8:42 PM EDT
Moon 8:08 PM EDT (9/20) 8:16 AM EDT (9/20)
Length of Visible Light 12h 58m
Length of Day
12h 11m
Full, 98% of the Moon is Illuminated
Sep 20
Full
Sep 26
Last Quarter
Oct 4
New
Oct 11
First Quarter
Oct 18
Full

Hourly Weather History & Observations

Time (EDT) Temp. Heat Index Dew Point Humidity Pressure Visibility Wind Dir Wind Speed Gust Speed Precip Events Conditions
12:53 AM 72.0 °F - 68.0 °F 87% 30.04 in 10.0 mi NE 3.5 mph - N/A   Clear
1:53 AM 72.0 °F - 68.0 °F 87% 30.04 in 10.0 mi Calm Calm - N/A   Clear
2:53 AM 71.1 °F - 68.0 °F 90% 30.03 in 10.0 mi Calm Calm - N/A   Clear
3:53 AM 71.1 °F - 68.0 °F 90% 30.02 in 10.0 mi Calm Calm - N/A   Clear
4:53 AM 71.1 °F - 68.0 °F 90% 30.01 in 10.0 mi Calm Calm - N/A   Clear
5:53 AM 71.1 °F - 68.0 °F 90% 30.02 in 10.0 mi North 3.5 mph - N/A   Clear
6:53 AM 70.0 °F - 68.0 °F 93% 30.02 in 10.0 mi Calm Calm - N/A   Clear
7:53 AM 72.0 °F - 69.1 °F 91% 30.04 in 10.0 mi Calm Calm - N/A   Clear
8:53 AM 77.0 °F - 70.0 °F 79% 30.05 in 10.0 mi North 3.5 mph - N/A   Clear
9:53 AM 81.0 °F 84.4 °F 70.0 °F 69% 30.05 in 10.0 mi NE 5.8 mph - N/A   Clear
10:53 AM 82.9 °F 86.5 °F 69.1 °F 63% 30.04 in 10.0 mi ENE 6.9 mph - N/A   Clear
11:53 AM 82.9 °F 86.5 °F 69.1 °F 63% 30.03 in 10.0 mi NE 9.2 mph - N/A   Scattered Clouds
12:53 PM 84.0 °F 87.8 °F 69.1 °F 61% 30.01 in 10.0 mi NE 8.1 mph - N/A   Mostly Cloudy
1:53 PM 87.1 °F 91.3 °F 69.1 °F 55% 30.00 in 10.0 mi ENE 6.9 mph - N/A   Scattered Clouds
2:53 PM 86.0 °F 89.4 °F 68.0 °F 55% 29.97 in 10.0 mi East 8.1 mph - N/A   Partly Cloudy
3:53 PM 86.0 °F 88.8 °F 66.9 °F 53% 29.95 in 10.0 mi East 9.2 mph - N/A   Clear
4:53 PM 86.0 °F 89.4 °F 68.0 °F 55% 29.95 in 10.0 mi East 11.5 mph - N/A   Scattered Clouds
5:53 PM 82.9 °F 86.5 °F 69.1 °F 63% 29.94 in 10.0 mi East 15.0 mph - N/A   Clear
6:53 PM 81.0 °F 83.8 °F 68.0 °F 65% 29.94 in 10.0 mi ENE 11.5 mph - N/A   Clear
7:53 PM 77.0 °F - 68.0 °F 74% 29.94 in 10.0 mi East 6.9 mph - N/A   Clear
8:53 PM 75.0 °F - 70.0 °F 84% 29.94 in 10.0 mi ESE 3.5 mph - N/A   Clear
9:53 PM 75.9 °F - 70.0 °F 82% 29.96 in 10.0 mi ENE 3.5 mph - N/A   Clear
10:53 PM 73.0 °F - 70.0 °F 90% 29.97 in 10.0 mi Calm Calm - N/A   Clear
11:53 PM 73.9 °F - 70.0 °F 87% 29.97 in 10.0 mi Calm Calm - N/A   Clear